Regional Weather Roundup
Issued by NWS

Home | Current Version | Previous Version | Text Only | Print | Product List | Glossary Off
Versions: 1 2 3 4 5 6 7 8 9 10 11 12 13 14 15 16 17 18 19 20 21 22 23 24 25 26 27 28 29 30 31 32 33 34 35 36 37 38 39 40 41 42 43 44 45 46 47 48 49 50

000
ASUS44 KMEG 301410
RWRTN
TENNESSEE HOURLY STATE WEATHER ROUNDUP
NATIONAL WEATHER SERVICE MEMPHIS TN
900 AM CDT THU MAR 30 2017

TNZ002-004-019-021-049-052-054-088>092-301500-
WEST TENNESSEE

CITY           SKY/WX    TMP DP  RH WIND       PRES   REMARKS
MEMPHIS INTL   PTSUNNY   67  59  75 S23G31    29.71F
NWS MEMPHIS      N/A     68 N/A N/A MISG        N/A
JACKSON        CLOUDY    68  55  63 S9        29.70F
DYERSBURG      LGT RAIN  67  55  65 S10       29.68F
SOMERVILLE     PTSUNNY   68  54  60 S16G24    29.71R
BOLIVAR        SUNNY     68  54  60 S12G21    29.71F
PARIS          SUNNY     66  54  63 S15       29.71R
HUNTINGDON     SUNNY     68  55  64 S16G25    29.71F
SAVANNAH       SUNNY     68  55  64 S14       29.74F
$$

TNZ008-025-027-028-033-062-065-066-301500-
NORTH MIDDLE TENNESSEE

CITY           SKY/WX    TMP DP  RH WIND       PRES   REMARKS
NASHVILLE      CLOUDY    69  59  70 SE18      29.73F
PORTLAND       SUNNY     68  59  73 S14       29.76S
CLARKSVILLE    PTSUNNY   69  58  67 SE7       29.70F
SMYRNA         CLOUDY    69  60  73 SE21G30   29.73F
COOKEVILLE     SUNNY     70  54  56 S9G20     29.85F
GALLATIN       SUNNY     70  59  68 SE18G24   29.78F
CROSSVILLE     CLOUDY    65  53  65 S12       29.94F
$$

TNZ061-075-076-078-094-096-097-301500-
SOUTH MIDDLE TENNESSEE

CITY           SKY/WX    TMP DP  RH WIND       PRES   REMARKS
FAYETTEVILLE   SUNNY     66  61  82 S20G25    29.83F
TULLAHOMA      SUNNY     66  57  72 SE15      29.87F
WINCHESTER     MOSUNNY   66  59  77 S12       29.90F
MCMINNVILLE    MOSUNNY   68  59  73 S10       29.87F
COLUMBIA       SUNNY     70  66  88 SW15G23   29.76R
SHELBYVILLE    SUNNY     70  63  78 S16       29.81F
$$

TNZ017-018-042-046-047-301500-
NORTHEAST TENNESSEE

CITY           SKY/WX    TMP DP  RH WIND       PRES   REMARKS
TRI CITIES     MOSUNNY   68  53  58 SE8       29.99F
ELIZABETHTON   SUNNY     66  54  63 E12G17    30.01S
$$

TNZ012-013-036-069-073-074-301500-
CENTRAL EAST TENNESSEE

CITY           SKY/WX    TMP DP  RH WIND       PRES   REMARKS
KNOXVILLE      CLOUDY    63  53  70 W3        29.94S
OAK RIDGE      CLOUDY    64  52  64 CALM      29.96S
DOWNTOWN KNOXV CLOUDY    61  55  82 CALM      29.95S
GATLINBURG     SUNNY     64  52  63 CALM      29.93F
MORRISTOWN     PTSUNNY   70  54  56 SE8       29.94F
JACKSBORO      PTSUNNY   59  54  82 CALM      29.97S
$$

TNZ083-085-099-301500-
SOUTHEAST TENNESSEE

CITY           SKY/WX    TMP DP  RH WIND       PRES   REMARKS
CHATTANOOGA    CLOUDY    68  57  68 S6        29.96S
$$

SKY/WX REPORTED AS FAIR MEANS FEW OR NO CLOUDS BELOW
12 THOUSAND FEET.





USA.gov is the U.S. government's official web portal to all federal, state and local government web resources and services.